Aérodrome :
LOGIN :

S'inscrire | Disclaimer

   EN    FR    IT 

 










Légende :    VFR   VFR Marginal   IFR   IFR Intensif   IFR Très Intensif
Visi : 
Plafond : 
>= 8 km
>= 3000ft
5 à 8 km
1000 à 3000 ft
1500m à 5 km
500 à 1000 ft
800 à 1500m
200 à 500 ft
< 800m
< 200 ft
Symboles :   Orages  Brouillard  Fortes neiges  Fortes précipitations  Vent > 20 kt
SIGMETs :   Divers  Orages  Givrage  Turbulence  Onde Orograph.  Cendres Volcan.







- Altitude de l'aérodrome : 26 ft
- Code IATA : BIA
- Voir les cartes d'approche


LFKB - Bastia

DERNIER METAR :
  • 230230Z VRB02KT CAVOK 22/20 Q1015 NOSIG

METARs EXPIRÉS :
  • 230200Z VRB01KT CAVOK 22/20 Q1016 NOSIG
  • 230130Z 21004KT CAVOK 22/20 Q1016 NOSIG
  • 230100Z AUTO 24002KT CAVOK 23/21 Q1016 NOSIG
  • 230030Z AUTO 31003KT CAVOK 23/20 Q1016 NOSIG
  • 230000Z AUTO 20002KT CAVOK 23/21 Q1016 NOSIG

TAF TAF LFKB
Valide du 23 à 03h jusqu'au 24 à 03h UTC


230200Z 2303/2403 24004KT CAVOK
TEMPO 2303/2305 SCT026
BECMG 2308/2310 12008KT SCT030
BECMG 2318/2321 24004KT CAVOK TX30/2312Z TN21/2303Z
ATIS : +33 4 95 59 19 40
Pas de NOTAMs connus pour ce terrain.



MET'MAP, la Météo Aéronautique d'un coup d'oeil ! - Copyright ORBIFLY Décembre 2007 - Disclaimer

ORBIFLY MET'MAP TEAM :

Programmation & Développement : Alexandra Zaïnal
Conception & Développement : Baudouin d'Aumeries
Co-Programmation & Développement : Marc-Olivier Méhu
Soutien technique & logistique : Manuel Goepfert

Contact : metmap@orbifly.com




SOURCES & CREDITS :

   NOAA